Regional Weather Roundup
Issued by NWS Spokane, WA

Home | Current Version | Previous Version | Text Only | Print | Product List | Glossary On
Versions: 1 2 3 4 5 6 7 8 9 10 11 12 13 14 15 16 17 18 19 20 21 22 23 24 25 26 27 28 29 30 31 32 33 34 35 36 37 38 39 40 41 42 43 44 45 46 47 48 49 50
000
NZUS01 KOTX 230225
RWROTX

Eastern Washington/Northern Idaho Roundup
National Weather Service, Spokane WA
700 PM PDT TUE AUG 22 2017

Note: "fair" indicated few or no clouds below 12,000 feet with no
significant weather and/or obstructions to visibility.

...Northeast Washington and Northern Idaho Panhandle...

CITY           SKY/WX    TMP DP  RH WIND       PRES   REMARKS
Spokane Intl   MOCLDY    87  38  17 SW7       29.95F
Spokane Downto PTCLDY    88  40  18 CALM      29.93F
Coeur d Alene  CLEAR     84  45  25 CALM      29.96
Deer Park      CLEAR     86  40  19 CALM      29.94F
Sandpoint      CLEAR     77  50  38 CALM      29.93F
Bonners Ferry  FAIR      84  41  21 SW3       29.93S

...Southeast Washington and southern Idaho Panhandle...

CITY           SKY/WX    TMP DP  RH WIND       PRES   REMARKS
Walla Walla    CLEAR     88  49  25 W3        29.89F
Pullman/Moscow CLEAR     82  39  21 W6        29.99F
Lewiston       CLEAR     93  38  14 CALM      29.88F
Lowell           N/A     74  54  49 N3        29.91S
Grangeville    FAIR      77  39  25 SE6       30.01S

...Columbia Basin...

CITY           SKY/WX    TMP DP  RH WIND       PRES   REMARKS
Ephrata        CLEAR     88  39  17 SW8       29.89F
Moses Lake     CLEAR     89  43  20 S7        29.89F
Pasco          CLEAR     89  52  28 SW3       29.85F
Richland       CLEAR     88  52  29 CALM      29.85S
Hermiston      CLEAR     87  48  25 S5        29.86F
Pendleton      CLEAR     83  43  24 W5        29.91F

...East Slopes Cascades...

CITY           SKY/WX    TMP DP  RH WIND       PRES   REMARKS
The Dalles     CLEAR     86  58  38 NW15G23   29.88S
Yakima         CLEAR     89  55  31 CALM      29.89S
Ellensburg     CLEAR     86  51  29 NW14      29.92S
Stampede Pass  PTCLDY    69  49  48 VRB6      30.12S
Wenatchee      CLEAR     85  47  26 SE10      29.88S
Omak           PTCLDY    92  39  15 S6        29.86F
Chelan           N/A     90  43  19 S7          N/A
Sunnyside        N/A     75  63  65 E6        29.86F

...Southern British Columbia...

CITY           SKY/WX    TMP DP  RH WIND       PRES   REMARKS
Penticton      PTCLDY    84  55  37 S9        29.82S
Castlegar      PTCLDY    90  43  19 S5        29.86F
Cranbrook      PTCLDY    86  41  20 SE8       29.95F
Osoyoos          N/A     88  46  23 SE7         N/A
Creston          N/A     88  45  22 W1          N/A

...Western Montana...

CITY           SKY/WX    TMP DP  RH WIND       PRES   REMARKS
Kalispell      CLEAR     79  43  27 CALM      29.98F
Libby            N/A     90  37  15 CALM      29.93S
Missoula       CLEAR     83  42  23 S3        30.00S HAZE

...Neighboring Cities...

CITY           SKY/WX    TMP DP  RH WIND       PRES   REMARKS
Seattle        SUNNY     82  56  40 S6        29.97F
Portland       PTSUNNY   83  59  44 VRB6      29.96S
Boise          CLEAR     88  49  25 W5        29.96F
Great Falls    CLEAR     80  33  18 E8        30.03F
Calgary        PTCLDY    75  45  33 E7        30.02F



USA.gov is the U.S. government's official web portal to all federal, state and local government web resources and services.